• en France
  • Liste des pays
  • À 7 jours
  • Température de l'eau
  • Carte satellitaire
  • Carte météo
  • Widgets météo
  • user-avatar
    Se connecter

    Météo par heure à Starokuktovo

    Ce jour, 16 Juillet, Lundi

    Heure Température Précipitation Vent Pression Humidité
    00:00 +20°C° 0 mm 3 m/s 747 mmHg 91%
    01:00 +20°C° 0 mm 3 m/s 747 mmHg 92%
    02:00 +19°C° 0 mm 3 m/s 747 mmHg 92%
    03:00 +19°C° 0 mm 3 m/s 748 mmHg 93%
    04:00 +19°C° 0 mm 3 m/s 748 mmHg 94%
    05:00 +20°C° 0,4 mm 3 m/s 748 mmHg 92%
    06:00 +21°C° 0,4 mm 3 m/s 748 mmHg 90%
    07:00 +22°C° 0,4 mm 3 m/s 748 mmHg 88%
    08:00 +24°C° 0,1 mm 3 m/s 748 mmHg 84%
    09:00 +25°C° 0,1 mm 3 m/s 748 mmHg 81%
    10:00 +26°C° 0 mm 3 m/s 748 mmHg 75%
    11:00 +27°C° 0,4 mm 4 m/s 748 mmHg 71%
    12:00 +28°C° 0,4 mm 4 m/s 748 mmHg 68%
    13:00 +28°C° 0,4 mm 4 m/s 748 mmHg 64%
    14:00 +29°C° 0 mm 4 m/s 748 mmHg 66%
    15:00 +29°C° 0 mm 4 m/s 748 mmHg 66%
    16:00 +29°C° 0 mm 4 m/s 748 mmHg 65%
    17:00 +28°C° 0,1 mm 3 m/s 748 mmHg 69%
    18:00 +28°C° 0,1 mm 3 m/s 748 mmHg 72%
    19:00 +27°C° 0,1 mm 2 m/s 748 mmHg 76%
    20:00 +26°C° 0 mm 2 m/s 748 mmHg 78%
    21:00 +24°C° 0 mm 2 m/s 748 mmHg 81%
    22:00 +23°C° 0 mm 2 m/s 748 mmHg 83%
    23:00 +21°C° 0 mm 2 m/s 748 mmHg 84%

    Demain, 17 Juillet, Mardi

    Heure Température Précipitation Vent Pression Humidité
    00:00 +20°C° 0 mm 2 m/s 748 mmHg 85%
    01:00 +20°C° 0 mm 3 m/s 748 mmHg 87%
    02:00 +19°C° 0 mm 3 m/s 748 mmHg 87%
    03:00 +19°C° 0 mm 3 m/s 748 mmHg 87%
    04:00 +18°C° 0 mm 3 m/s 748 mmHg 87%
    05:00 +19°C° 0 mm 3 m/s 748 mmHg 85%
    06:00 +20°C° 0 mm 3 m/s 748 mmHg 83%
    07:00 +20°C° 0 mm 4 m/s 748 mmHg 81%
    08:00 +21°C° 0 mm 4 m/s 748 mmHg 79%
    09:00 +22°C° 0 mm 4 m/s 748 mmHg 77%
    10:00 +23°C° 0 mm 4 m/s 748 mmHg 74%
    11:00 +25°C° 0 mm 4 m/s 748 mmHg 74%
    12:00 +25°C° 0 mm 4 m/s 748 mmHg 73%
    13:00 +25°C° 0 mm 5 m/s 747 mmHg 72%
    14:00 +25°C° 0 mm 4 m/s 747 mmHg 73%
    15:00 +25°C° 0 mm 4 m/s 747 mmHg 74%
    16:00 +25°C° 0 mm 4 m/s 747 mmHg 76%
    17:00 +25°C° 0 mm 4 m/s 747 mmHg 78%
    18:00 +24°C° 0 mm 3 m/s 747 mmHg 79%
    19:00 +24°C° 0 mm 3 m/s 747 mmHg 81%
    20:00 +22°C° 0,4 mm 3 m/s 746 mmHg 82%
    21:00 +21°C° 0,4 mm 3 m/s 746 mmHg 83%
    22:00 +21°C° 0,4 mm 3 m/s 746 mmHg 84%
    23:00 +21°C° 1,3 mm 3 m/s 746 mmHg 87%

    Après-demain, 18 Juillet, Mercredi

    Heure Température Précipitation Vent Pression Humidité
    00:00 +20°C° 1,3 mm 3 m/s 746 mmHg 90%
    01:00 +20°C° 1,3 mm 3 m/s 746 mmHg 94%
    02:00 +20°C° 0,6 mm 3 m/s 746 mmHg 94%
    03:00 +20°C° 0,6 mm 4 m/s 746 mmHg 94%
    04:00 +20°C° 0,6 mm 5 m/s 746 mmHg 95%
    05:00 +20°C° 0,8 mm 5 m/s 745 mmHg 94%
    06:00 +20°C° 0,8 mm 5 m/s 745 mmHg 93%
    07:00 +20°C° 0,8 mm 5 m/s 745 mmHg 93%
    08:00 +20°C° 3 mm 4 m/s 745 mmHg 94%
    09:00 +20°C° 3 mm 4 m/s 745 mmHg 94%
    10:00 +20°C° 3 mm 4 m/s 745 mmHg 95%
    11:00 +21°C° 0,2 mm 4 m/s 745 mmHg 92%
    12:00 +22°C° 0,2 mm 4 m/s 745 mmHg 88%
    13:00 +25°C° 0,2 mm 4 m/s 745 mmHg 85%
    14:00 +26°C° 0,2 mm 3 m/s 745 mmHg 83%
    15:00 +26°C° 0,2 mm 3 m/s 745 mmHg 81%
    16:00 +27°C° 0,2 mm 2 m/s 745 mmHg 79%
    17:00 +27°C° 0,3 mm 2 m/s 745 mmHg 81%
    18:00 +26°C° 0,3 mm 2 m/s 745 mmHg 84%
    19:00 +26°C° 0,3 mm 1 m/s 746 mmHg 86%
    20:00 +25°C° 0,4 mm 2 m/s 746 mmHg 88%
    21:00 +24°C° 0,4 mm 2 m/s 746 mmHg 90%
    22:00 +23°C° 0,4 mm 2 m/s 746 mmHg 91%
    23:00 +21°C° 0,1 mm 2 m/s 746 mmHg 92%

    19 Juillet, Jeudi

    Heure Température Précipitation Vent Pression Humidité
    00:00 +20°C° 0,1 mm 2 m/s 746 mmHg 93%
    01:00 +20°C° 0,1 mm 2 m/s 746 mmHg 94%
    02:00 +19°C° 0 mm 2 m/s 746 mmHg 94%
    03:00 +19°C° 0 mm 2 m/s 746 mmHg 94%
    04:00 +18°C° 0 mm 2 m/s 747 mmHg 95%
    05:00 +19°C° 0 mm 2 m/s 747 mmHg 93%
    06:00 +20°C° 0 mm 2 m/s 747 mmHg 91%
    07:00 +21°C° 0 mm 2 m/s 747 mmHg 90%
    08:00 +23°C° 0,2 mm 2 m/s 747 mmHg 86%
    09:00 +25°C° 0,2 mm 2 m/s 747 mmHg 82%
    10:00 +26°C° 0,2 mm 2 m/s 747 mmHg 78%
    11:00 +27°C° 0,9 mm 2 m/s 747 mmHg 76%
    12:00 +27°C° 0,9 mm 2 m/s 747 mmHg 73%
    13:00 +28°C° 0,9 mm 2 m/s 747 mmHg 70%
    14:00 +28°C° 0,7 mm 2 m/s 747 mmHg 68%
    15:00 +29°C° 0,7 mm 1 m/s 747 mmHg 66%
    16:00 +29°C° 0,7 mm 1 m/s 747 mmHg 65%
    17:00 +28°C° 0,1 mm 1 m/s 747 mmHg 69%
    18:00 +28°C° 0,1 mm 1 m/s 747 mmHg 74%
    19:00 +27°C° 0,1 mm 2 m/s 747 mmHg 78%
    20:00 +25°C° 0 mm 2 m/s 747 mmHg 83%
    21:00 +24°C° 0 mm 2 m/s 748 mmHg 87%
    22:00 +21°C° 0 mm 2 m/s 748 mmHg 91%
    23:00 +21°C° 0,2 mm 2 m/s 748 mmHg 93%

    20 Juillet, Vendredi

    Heure Température Précipitation Vent Pression Humidité
    00:00 +20°C° 0,2 mm 2 m/s 748 mmHg 94%
    01:00 +19°C° 0,2 mm 2 m/s 748 mmHg 95%
    02:00 +19°C° 0 mm 2 m/s 748 mmHg 95%
    03:00 +18°C° 0 mm 2 m/s 748 mmHg 96%
    04:00 +18°C° 0 mm 2 m/s 748 mmHg 96%
    05:00 +18°C° 0 mm 2 m/s 748 mmHg 95%
    06:00 +19°C° 0 mm 2 m/s 748 mmHg 93%
    07:00 +20°C° 0 mm 3 m/s 748 mmHg 92%
    08:00 +21°C° 0 mm 3 m/s 748 mmHg 88%
    09:00 +22°C° 0 mm 3 m/s 748 mmHg 84%
    10:00 +25°C° 0 mm 3 m/s 748 mmHg 80%
    11:00 +25°C° 0 mm 3 m/s 748 mmHg 78%
    12:00 +26°C° 0 mm 3 m/s 748 mmHg 76%
    13:00 +27°C° 0 mm 3 m/s 748 mmHg 73%
    14:00 +27°C° 0,2 mm 3 m/s 748 mmHg 73%
    15:00 +28°C° 0,2 mm 3 m/s 748 mmHg 72%
    16:00 +28°C° 0,2 mm 3 m/s 748 mmHg 71%
    17:00 +27°C° 0,1 mm 3 m/s 748 mmHg 75%
    18:00 +27°C° 0,1 mm 3 m/s 748 mmHg 79%
    19:00 +26°C° 0,1 mm 3 m/s 748 mmHg 83%
    20:00 +24°C° 0 mm 3 m/s 748 mmHg 86%
    21:00 +22°C° 0 mm 3 m/s 748 mmHg 89%
    22:00 +21°C° 0 mm 3 m/s 748 mmHg 92%
    23:00 +20°C° 0 mm 3 m/s 748 mmHg 92%

    21 Juillet, Samedi

    Heure Température Précipitation Vent Pression Humidité
    00:00 +20°C° 0 mm 4 m/s 748 mmHg 92%
    01:00 +19°C° 0 mm 4 m/s 748 mmHg 92%
    02:00 +19°C° 0 mm 4 m/s 749 mmHg 92%
    03:00 +19°C° 0 mm 4 m/s 749 mmHg 92%
    04:00 +18°C° 0 mm 4 m/s 749 mmHg 92%
    05:00 +19°C° 0 mm 4 m/s 749 mmHg 90%
    06:00 +20°C° 0 mm 5 m/s 749 mmHg 88%
    07:00 +20°C° 0 mm 5 m/s 750 mmHg 86%
    08:00 +21°C° 0 mm 5 m/s 750 mmHg 82%
    09:00 +23°C° 0 mm 6 m/s 750 mmHg 79%
    10:00 +24°C° 0 mm 6 m/s 750 mmHg 75%
    11:00 +24°C° 0 mm 6 m/s 750 mmHg 71%
    12:00 +26°C° 0 mm 6 m/s 750 mmHg 68%
    13:00 +27°C° 0 mm 6 m/s 750 mmHg 65%
    14:00 +27°C° 0,1 mm 6 m/s 750 mmHg 64%
    15:00 +27°C° 0,1 mm 6 m/s 750 mmHg 63%
    16:00 +27°C° 0,1 mm 6 m/s 750 mmHg 63%
    17:00 +26°C° 0 mm 5 m/s 750 mmHg 66%
    18:00 +25°C° 0 mm 5 m/s 750 mmHg 70%
    19:00 +23°C° 0 mm 4 m/s 750 mmHg 73%
    20:00 +22°C° 0 mm 5 m/s 751 mmHg 72%
    21:00 +21°C° 0 mm 5 m/s 751 mmHg 71%
    22:00 +20°C° 0 mm 5 m/s 751 mmHg 69%
    23:00 +20°C° 0 mm 5 m/s 751 mmHg 70%
    Voir plus